| time (UTC) | temp F | wind direction | speed MPH | gust MPH | rain 1hr in | rain 24hr in | rain mn in | humidity % | barometer mb |
| 20260505173804 | 50 | 10 | 5.0 | 9.0 | 0.00 | 0.52 | 0.00 | 48 | 1011.2 |
| 20260505173304 | 50 | 24 | 7.0 | 12.0 | 0.00 | 0.52 | 0.00 | 48 | 1011.3 |
| 20260505173100 | 50 | 17 | 7.0 | 11.0 | 0.00 | 0.00 | 0.00 | 47 | 1011.2 |
| 20260505171804 | 50 | 23 | 6.0 | 8.0 | 0.00 | 0.69 | 0.00 | 49 | 1011.3 |
| 20260505171606 | 49 | 22 | 4.0 | 8.0 | 0.00 | 0.00 | 0.00 | 49 | 1011.2 |
| 20260505171304 | 50 | 356 | 5.0 | 8.0 | 0.00 | 0.69 | 0.00 | 48 | 1011.2 |
| 20260505170804 | 50 | 35 | 5.0 | 7.0 | 0.00 | 0.69 | 0.00 | 48 | 1011.2 |
| 20260505170304 | 50 | 27 | 5.0 | 8.0 | 0.00 | 0.69 | 0.00 | 48 | 1011.2 |
| 20260505170059 | 50 | 38 | 3.0 | 8.0 | 0.00 | 0.00 | 0.00 | 47 | 1011.1 |
| 20260505164804 | 49 | 28 | 5.0 | 10.0 | 0.00 | 0.69 | 0.00 | 50 | 1011.4 |
| 20260505164622 | 49 | 8 | 6.0 | 10.0 | 0.00 | 0.00 | 0.00 | 50 | 1011.4 |
| 20260505164304 | 49 | 17 | 5.0 | 10.0 | 0.00 | 0.69 | 0.00 | 50 | 1011.5 |
| 20260505163804 | 49 | 17 | 5.0 | 9.0 | 0.00 | 0.69 | 0.00 | 50 | 1011.5 |
| 20260505163304 | 50 | 34 | 6.0 | 12.0 | 0.00 | 0.69 | 0.00 | 51 | 1011.5 |
| 20260505163107 | 50 | 17 | 6.0 | 12.0 | 0.00 | 0.00 | 0.00 | 50 | 1011.5 |
| 20260505161616 | 49 | 16 | 7.0 | 14.0 | 0.00 | 0.00 | 0.00 | 50 | 1011.4 |
| 20260505161304 | 50 | 21 | 9.0 | 12.0 | 0.00 | 0.69 | 0.00 | 53 | 1011.5 |
| 20260505160804 | 50 | 30 | 7.0 | 12.0 | 0.00 | 0.69 | 0.00 | 51 | 1011.6 |
| 20260505160305 | 50 | 29 | 7.0 | 13.0 | 0.00 | 0.69 | 0.00 | 51 | 1011.6 |
| 20260505160110 | 50 | 39 | 9.0 | 13.0 | 0.00 | 0.00 | 0.00 | 50 | 1011.6 |
| 20260505153304 | 49 | 42 | 7.0 | 13.0 | 0.00 | 0.69 | 0.00 | 53 | 1011.4 |
| 20260505153101 | 49 | 38 | 8.0 | 13.0 | 0.00 | 0.00 | 0.00 | 53 | 1011.4 |
| 20260505151804 | 49 | 1 | 5.0 | 12.0 | 0.00 | 0.69 | 0.00 | 53 | 1011.4 |
| 20260505151604 | 49 | 340 | 7.0 | 13.0 | 0.00 | 0.00 | 0.00 | 52 | 1011.4 |
| 20260505150804 | 50 | 35 | 10.0 | 13.0 | 0.00 | 0.69 | 0.00 | 54 | 1011.6 |
| 20260505150304 | 50 | 14 | 9.0 | 14.0 | 0.00 | 0.69 | 0.00 | 54 | 1011.6 |
| 20260505140305 | 50 | 21 | 7.0 | 15.0 | 0.00 | 0.69 | 0.00 | 56 | 1011.8 |
| 20260505130304 | 50 | 19 | 12.0 | 16.0 | 0.00 | 1.21 | 0.00 | 57 | 1011.9 |
| 20260505130113 | 49 | 8 | 10.0 | 16.0 | 0.00 | 0.00 | 0.00 | 56 | 1011.9 |
| 20260505124804 | 50 | 22 | 9.0 | 16.0 | 0.00 | 1.21 | 0.00 | 55 | 1011.8 |
| 20260505124615 | 49 | 27 | 12.0 | 16.0 | 0.00 | 0.00 | 0.00 | 57 | 1011.7 |
| 20260505124304 | 49 | 23 | 10.0 | 16.0 | 0.00 | 1.21 | 0.00 | 56 | 1011.8 |
| 20260505123306 | 50 | 20 | 9.0 | 14.0 | 0.00 | 1.21 | 0.00 | 55 | 1011.8 |
| 20260505123101 | 49 | 38 | 9.0 | 14.0 | 0.00 | 0.00 | 0.00 | 54 | 1011.7 |
| 20260505121804 | 50 | 13 | 10.0 | 15.0 | 0.00 | 1.21 | 0.00 | 55 | 1011.7 |
| 20260505121559 | 49 | 6 | 11.0 | 16.0 | 0.00 | 0.00 | 0.00 | 53 | 1011.7 |
| 20260505121304 | 49 | 11 | 12.0 | 16.0 | 0.00 | 1.21 | 0.00 | 54 | 1011.8 |
| 20260505120804 | 50 | 11 | 12.0 | 15.0 | 0.00 | 1.21 | 0.00 | 54 | 1011.8 |
| 20260505120304 | 50 | 14 | 9.0 | 18.0 | 0.00 | 1.21 | 0.00 | 55 | 1011.8 |
| 20260505120111 | 50 | 44 | 10.0 | 18.0 | 0.00 | 0.00 | 0.00 | 55 | 1011.7 |
| 20260505114804 | 50 | 22 | 13.0 | 18.0 | 0.00 | 1.21 | 0.00 | 54 | 1011.7 |
| 20260505114601 | 49 | 25 | 12.0 | 17.0 | 0.00 | 0.00 | 0.00 | 52 | 1011.6 |
| 20260505114304 | 50 | 14 | 13.0 | 17.0 | 0.00 | 1.21 | 0.00 | 53 | 1011.6 |
| 20260505113804 | 50 | 17 | 10.0 | 15.0 | 0.00 | 1.21 | 0.00 | 56 | 1011.6 |
| 20260505113304 | 49 | 12 | 12.0 | 16.0 | 0.00 | 1.21 | 0.00 | 55 | 1011.5 |
| 20260505113105 | 48 | 11 | 8.0 | 16.0 | 0.00 | 0.00 | 0.00 | 54 | 1011.5 |
| 20260505111804 | 49 | 36 | 11.0 | 16.0 | 0.00 | 1.21 | 0.00 | 55 | 1011.5 |
| 20260505111557 | 49 | 13 | 10.0 | 14.0 | 0.00 | 0.00 | 0.00 | 54 | 1011.4 |
| 20260505111304 | 49 | 5 | 10.0 | 14.0 | 0.00 | 1.21 | 0.00 | 54 | 1011.6 |
| 20260505110304 | 49 | 16 | 11.0 | 14.0 | 0.00 | 1.21 | 0.00 | 54 | 1011.5 |
| 20260505110117 | 48 | 357 | 9.0 | 14.0 | 0.00 | 0.00 | 0.00 | 53 | 1011.4 |
| 20260505101601 | 48 | 14 | 9.0 | 19.0 | 0.00 | 0.00 | 0.00 | 51 | 1011.7 |
| 20260505101304 | 49 | 22 | 10.0 | 20.0 | 0.00 | 1.39 | 0.00 | 51 | 1011.6 |
| 20260505100804 | 49 | 24 | 14.0 | 20.0 | 0.00 | 1.39 | 0.00 | 53 | 1011.5 |
| 20260505100304 | 49 | 19 | 15.0 | 18.0 | 0.00 | 1.39 | 0.00 | 50 | 1011.6 |
| 20260505100058 | 49 | 22 | 10.0 | 18.0 | 0.00 | 0.00 | 0.00 | 51 | 1011.5 |
| 20260505094804 | 49 | 22 | 14.0 | 18.0 | 0.00 | 1.39 | 0.00 | 52 | 1011.5 |
| 20260505094557 | 49 | 11 | 12.0 | 18.0 | 0.00 | 0.00 | 0.00 | 52 | 1011.4 |
| 20260505094304 | 49 | 14 | 7.0 | 17.0 | 0.00 | 1.39 | 0.00 | 54 | 1011.4 |
| 20260505093304 | 49 | 18 | 7.0 | 17.0 | 0.00 | 1.39 | 0.00 | 54 | 1011.2 |
| 20260505093107 | 49 | 357 | 9.0 | 15.0 | 0.00 | 0.00 | 0.00 | 53 | 1011.1 |
| 20260505091556 | 49 | 22 | 8.0 | 13.0 | 0.00 | 0.00 | 0.00 | 51 | 1010.9 |
| 20260505091304 | 49 | 13 | 9.0 | 13.0 | 0.00 | 1.56 | 0.00 | 53 | 1010.9 |
| 20260505090804 | 49 | 18 | 9.0 | 12.0 | 0.00 | 1.56 | 0.00 | 52 | 1011.0 |
| 20260505090304 | 49 | 8 | 10.0 | 15.0 | 0.00 | 1.56 | 0.00 | 52 | 1011.0 |
| 20260505090056 | 48 | 10 | 9.0 | 15.0 | 0.00 | 0.00 | 0.00 | 52 | 1010.9 |
| 20260505084804 | 49 | 41 | 12.0 | 16.0 | 0.00 | 1.56 | 0.00 | 51 | 1011.1 |
| 20260505084555 | 48 | 19 | 10.0 | 17.0 | 0.00 | 0.00 | 0.00 | 51 | 1011.0 |
| 20260505084304 | 49 | 7 | 10.0 | 17.0 | 0.00 | 1.56 | 0.00 | 52 | 1011.0 |
| 20260505083305 | 49 | 13 | 12.0 | 20.0 | 0.00 | 1.56 | 0.00 | 53 | 1010.9 |
| 20260505083058 | 49 | 25 | 11.0 | 19.0 | 0.00 | 0.00 | 0.00 | 52 | 1011.0 |
| 20260505081613 | 48 | 55 | 7.0 | 17.0 | 0.00 | 0.00 | 0.00 | 56 | 1010.9 |
| 20260505081304 | 49 | 22 | 12.0 | 17.0 | 0.00 | 1.56 | 0.00 | 56 | 1010.8 |
| 20260505080804 | 49 | 26 | 12.0 | 16.0 | 0.00 | 1.56 | 0.00 | 56 | 1010.8 |
| 20260505080304 | 49 | 26 | 12.0 | 16.0 | 0.00 | 1.73 | 0.00 | 54 | 1010.8 |
| 20260505080107 | 48 | 28 | 11.0 | 16.0 | 0.00 | 0.00 | 0.00 | 53 | 1010.7 |
| 20260505074804 | 49 | 20 | 8.0 | 14.0 | 0.00 | 1.91 | 0.00 | 57 | 1010.6 |
| 20260505074555 | 49 | 30 | 8.0 | 16.0 | 0.00 | 0.00 | 0.00 | 56 | 1010.5 |
| 20260505074304 | 49 | 22 | 10.0 | 16.0 | 0.00 | 1.91 | 0.00 | 57 | 1010.6 |
| 20260505073804 | 49 | 13 | 11.0 | 14.0 | 0.00 | 1.91 | 0.00 | 58 | 1010.6 |
| 20260505073304 | 49 | 20 | 11.0 | 16.0 | 0.00 | 1.91 | 0.00 | 58 | 1010.5 |
| 20260505073058 | 48 | 27 | 8.0 | 14.0 | 0.00 | 0.00 | 0.00 | 57 | 1010.5 |
| 20260505071804 | 48 | 41 | 8.0 | 12.0 | 0.00 | 1.91 | 0.00 | 59 | 1010.4 |
| 20260505071610 | 48 | 17 | 7.0 | 14.0 | 0.00 | 0.00 | 0.00 | 59 | 1010.3 |
| 20260505071304 | 48 | 43 | 7.0 | 13.0 | 0.00 | 1.91 | 0.00 | 59 | 1010.2 |
| 20260505070804 | 48 | 62 | 11.0 | 14.0 | 0.00 | 1.91 | 0.00 | 60 | 1010.4 |
| 20260505070305 | 49 | 32 | 8.0 | 15.0 | 0.00 | 1.91 | 0.00 | 59 | 1010.4 |
| 20260505070110 | 49 | 43 | 8.0 | 15.0 | 0.00 | 0.00 | 0.00 | 60 | 1010.2 |
| 20260505064804 | 48 | 20 | 6.0 | 12.0 | 0.00 | 1.91 | 0.00 | 60 | 1010.2 |
| 20260505064559 | 48 | 358 | 7.0 | 13.0 | 0.00 | 0.00 | 0.00 | 60 | 1010.2 |
| 20260505064304 | 48 | 53 | 9.0 | 12.0 | 0.00 | 1.91 | 0.00 | 59 | 1010.2 |
| 20260505063804 | 49 | 34 | 9.0 | 13.0 | 0.00 | 1.91 | 0.00 | 61 | 1010.1 |
| 20260505063306 | 49 | 78 | 7.0 | 15.0 | 0.00 | 1.91 | 0.00 | 60 | 1010.1 |
| 20260505063056 | 48 | 110 | 7.0 | 15.0 | 0.00 | 0.00 | 0.00 | 60 | 1010.0 |
| 20260505061601 | 48 | 24 | 11.0 | 15.0 | 0.00 | 0.00 | 0.00 | 61 | 1010.1 |
| 20260505061304 | 48 | 38 | 9.0 | 15.0 | 0.00 | 1.91 | 0.00 | 61 | 1010.0 |
| 20260505060805 | 48 | 34 | 12.0 | 21.0 | 0.00 | 1.91 | 0.00 | 61 | 1010.0 |
| 20260505060059 | 48 | 35 | 9.0 | 21.0 | 0.00 | 0.00 | 0.00 | 61 | 1009.9 |
| 20260505054804 | 48 | 49 | 13.0 | 18.0 | 0.00 | 1.91 | 0.00 | 64 | 1009.9 |
| 20260505054559 | 47 | 67 | 14.0 | 17.0 | 0.00 | 0.00 | 0.00 | 63 | 1009.8 |
| 20260505054305 | 48 | 51 | 13.0 | 17.0 | 0.00 | 1.91 | 0.00 | 64 | 1010.0 |
| 20260505053804 | 48 | 55 | 13.0 | 17.0 | 0.00 | 1.91 | 0.00 | 65 | 1009.8 |
| 20260505053305 | 48 | 50 | 12.0 | 20.0 | 0.00 | 2.08 | 0.00 | 65 | 1009.9 |
| 20260505053105 | 47 | 52 | 11.0 | 19.0 | 0.00 | 0.00 | 0.00 | 65 | 1009.8 |
| 20260505051557 | 47 | 45 | 8.0 | 20.0 | 0.00 | 0.00 | 0.00 | 65 | 1009.7 |
| 20260505051304 | 47 | 48 | 12.0 | 17.0 | 0.00 | 2.08 | 0.00 | 67 | 1009.8 |
| 20260505050804 | 47 | 37 | 13.0 | 18.0 | 0.00 | 2.08 | 0.00 | 68 | 1009.6 |
| 20260505050305 | 47 | 48 | 10.0 | 18.0 | 0.00 | 2.08 | 0.00 | 69 | 1009.6 |
| 20260505041557 | 46 | 48 | 10.0 | 18.0 | 0.00 | 0.00 | 0.00 | 73 | 1009.2 |
| 20260505040804 | 47 | 31 | 13.0 | 16.0 | 0.00 | 2.25 | 0.00 | 72 | 1009.3 |
| 20260505040304 | 47 | 19 | 15.0 | 22.0 | 0.00 | 2.25 | 0.00 | 73 | 1009.3 |
| 20260505040105 | 46 | 39 | 15.0 | 22.0 | 0.00 | 0.00 | 0.00 | 72 | 1009.2 |
| 20260505034600 | 47 | 34 | 14.0 | 20.0 | 0.00 | 0.00 | 0.00 | 74 | 1009.3 |
| 20260505034304 | 47 | 19 | 14.0 | 18.0 | 0.00 | 2.25 | 0.00 | 76 | 1009.2 |
| 20260505033804 | 47 | 26 | 14.0 | 22.0 | 0.00 | 2.25 | 0.00 | 77 | 1009.2 |
| 20260505033305 | 47 | 17 | 16.0 | 22.0 | 0.00 | 2.25 | 0.00 | 78 | 1009.3 |
| 20260505033100 | 47 | 19 | 15.0 | 22.0 | 0.00 | 0.00 | 0.00 | 77 | 1009.1 |
| 20260505031804 | 47 | 5 | 12.0 | 18.0 | 0.00 | 2.25 | 0.00 | 79 | 1009.1 |
| 20260505031559 | 47 | 21 | 11.0 | 20.0 | 0.00 | 0.00 | 0.00 | 79 | 1009.1 |
| 20260505030804 | 48 | 23 | 14.0 | 20.0 | 0.00 | 2.25 | 0.00 | 80 | 1009.0 |
| 20260505030305 | 48 | 8 | 12.0 | 21.0 | 0.00 | 2.25 | 0.00 | 80 | 1009.0 |
| 20260505030104 | 47 | 22 | 14.0 | 21.0 | 0.00 | 0.00 | 0.00 | 79 | 1009.0 |
| 20260505024804 | 48 | 20 | 13.0 | 21.0 | 0.00 | 2.26 | 0.00 | 80 | 1009.1 |
| 20260505024558 | 47 | 22 | 11.0 | 22.0 | 0.00 | 0.00 | 0.00 | 80 | 1009.1 |
| 20260505024304 | 48 | 0 | 13.0 | 22.0 | 0.00 | 2.26 | 0.00 | 80 | 1009.1 |
| 20260505023804 | 48 | 6 | 16.0 | 22.0 | 0.00 | 2.26 | 0.00 | 80 | 1009.2 |
| 20260505023305 | 48 | 6 | 16.0 | 23.0 | 0.00 | 2.26 | 0.00 | 81 | 1009.1 |
| 20260505023110 | 47 | 350 | 15.0 | 23.0 | 0.00 | 0.00 | 0.00 | 80 | 1009.2 |
| 20260505021804 | 48 | 5 | 14.0 | 20.0 | 0.00 | 2.43 | 0.00 | 82 | 1009.1 |
| 20260505021603 | 48 | 6 | 13.0 | 25.0 | 0.00 | 0.00 | 0.00 | 81 | 1009.2 |
| 20260505021304 | 48 | 4 | 17.0 | 25.0 | 0.00 | 2.59 | 0.00 | 82 | 1009.3 |
| 20260505020804 | 48 | 7 | 17.0 | 22.0 | 0.00 | 2.59 | 0.00 | 82 | 1009.3 |
| 20260505020059 | 48 | 19 | 13.0 | 24.0 | 0.00 | 0.00 | 0.00 | 81 | 1009.2 |
| 20260505014804 | 48 | 1 | 17.0 | 26.0 | 0.00 | 2.60 | 0.00 | 81 | 1009.2 |
| 20260505014600 | 48 | 4 | 17.0 | 26.0 | 0.00 | 0.02 | 0.00 | 81 | 1009.3 |
| 20260505014304 | 48 | 2 | 14.0 | 23.0 | 0.00 | 2.60 | 0.00 | 81 | 1009.2 |
| 20260505013804 | 48 | 1 | 18.0 | 26.0 | 0.00 | 2.60 | 0.00 | 81 | 1009.2 |
| 20260505013304 | 48 | 7 | 14.0 | 26.0 | 0.00 | 2.76 | 0.00 | 81 | 1009.2 |
| 20260505013057 | 48 | 25 | 15.0 | 25.0 | 0.00 | 0.02 | 0.00 | 81 | 1009.2 |
| 20260505011804 | 48 | 7 | 21.0 | 29.0 | 0.00 | 3.07 | 0.00 | 81 | 1009.3 |
| 20260505011559 | 48 | 4 | 19.0 | 29.0 | 0.00 | 0.02 | 0.00 | 81 | 1009.2 |
| 20260505011304 | 49 | 6 | 12.0 | 23.0 | 0.00 | 3.23 | 0.00 | 82 | 1009.3 |
| 20260505010104 | 48 | 2 | 13.0 | 26.0 | 0.00 | 0.02 | 0.00 | 82 | 1009.3 |
| 20260505004804 | 49 | 359 | 14.0 | 23.0 | 0.00 | 3.54 | 0.00 | 82 | 1009.4 |
| 20260505004559 | 48 | 360 | 11.0 | 26.0 | 0.00 | 0.04 | 0.00 | 81 | 1009.4 |
| 20260505004304 | 48 | 1 | 14.0 | 21.0 | 0.00 | 3.55 | 0.00 | 82 | 1009.4 |
| 20260505003305 | 48 | 350 | 17.0 | 30.0 | 0.00 | 3.55 | 0.00 | 82 | 1009.4 |
| 20260505003105 | 48 | 350 | 18.0 | 30.0 | 0.00 | 0.04 | 0.00 | 81 | 1009.3 |
| 20260505001804 | 48 | 354 | 15.0 | 24.0 | 0.00 | 3.55 | 0.00 | 81 | 1009.3 |
| 20260505001559 | 48 | 23 | 18.0 | 26.0 | 0.00 | 0.04 | 0.00 | 81 | 1009.3 |
| 20260505001304 | 49 | 342 | 20.0 | 25.0 | 0.00 | 3.56 | 0.00 | 82 | 1009.3 |
| 20260505000804 | 49 | 343 | 21.0 | 25.0 | 0.00 | 3.83 | 0.00 | 82 | 1009.3 |
| 20260505000112 | 48 | 357 | 21.0 | 28.0 | 0.00 | 0.04 | 0.00 | 81 | 1009.2 |
| 20260504234804 | 49 | 339 | 19.0 | 26.0 | 0.00 | 3.84 | 0.00 | 82 | 1009.3 |
| 20260504234559 | 48 | 340 | 17.0 | 25.0 | 0.00 | 0.11 | 0.00 | 81 | 1009.3 |
| 20260504234304 | 49 | 346 | 17.0 | 23.0 | 0.00 | 3.84 | 0.00 | 82 | 1009.3 |
| 20260504233804 | 49 | 340 | 18.0 | 25.0 | 0.00 | 3.85 | 0.00 | 82 | 1009.3 |
| 20260504233304 | 49 | 337 | 21.0 | 26.0 | 0.00 | 3.86 | 0.00 | 82 | 1009.3 |
| 20260504233106 | 48 | 340 | 16.0 | 26.0 | 0.00 | 0.11 | 0.00 | 81 | 1009.3 |
| 20260504231804 | 49 | 337 | 21.0 | 26.0 | 0.00 | 3.95 | 0.00 | 82 | 1009.4 |
| 20260504231558 | 48 | 340 | 17.0 | 25.0 | 0.00 | 0.11 | 0.00 | 81 | 1009.2 |
| 20260504231304 | 49 | 341 | 16.0 | 24.0 | 0.00 | 3.95 | 0.00 | 82 | 1009.4 |
| 20260504230804 | 49 | 333 | 15.0 | 25.0 | 0.00 | 3.96 | 0.00 | 82 | 1009.3 |
| 20260504230304 | 49 | 338 | 17.0 | 25.0 | 0.00 | 4.02 | 0.00 | 82 | 1009.4 |
| 20260504230057 | 48 | 321 | 15.0 | 25.0 | 0.00 | 0.11 | 0.00 | 82 | 1009.3 |
| 20260504224804 | 49 | 343 | 16.0 | 22.0 | 0.00 | 4.04 | 0.00 | 82 | 1009.5 |
| 20260504224600 | 48 | 332 | 15.0 | 25.0 | 0.00 | 0.17 | 0.00 | 82 | 1009.4 |
| 20260504224304 | 49 | 338 | 14.0 | 23.0 | 0.00 | 4.05 | 0.00 | 82 | 1009.4 |
| 20260504223804 | 49 | 332 | 18.0 | 25.0 | 0.00 | 4.06 | 0.00 | 82 | 1009.5 |
| 20260504223304 | 49 | 347 | 17.0 | 26.0 | 0.00 | 4.06 | 0.00 | 82 | 1009.5 |
| 20260504223058 | 48 | 331 | 17.0 | 26.0 | 0.00 | 0.17 | 0.00 | 81 | 1009.4 |
| 20260504221804 | 49 | 344 | 18.0 | 25.0 | 0.00 | 4.10 | 0.00 | 82 | 1009.6 |
| 20260504221557 | 49 | 336 | 17.0 | 26.0 | 0.00 | 0.17 | 0.00 | 81 | 1009.5 |
| 20260504221304 | 49 | 344 | 20.0 | 26.0 | 0.00 | 4.10 | 0.00 | 81 | 1009.6 |
| 20260504220827 | 49 | 340 | 16.0 | 22.0 | 0.00 | 4.10 | 0.00 | 81 | 1009.6 |
| 20260504220304 | 49 | 341 | 18.0 | 25.0 | 0.00 | 4.12 | 0.00 | 81 | 1009.7 |
| 20260504220115 | 49 | 356 | 18.0 | 26.0 | 0.00 | 0.17 | 0.00 | 81 | 1009.5 |
| 20260504214600 | 49 | 323 | 18.0 | 26.0 | 0.00 | 0.18 | 0.17 | 81 | 1009.6 |
| 20260504214304 | 49 | 341 | 20.0 | 26.0 | 0.00 | 4.13 | 0.17 | 81 | 1009.6 |
| 20260504213102 | 49 | 333 | 17.0 | 26.0 | 0.00 | 0.18 | 0.17 | 81 | 1009.7 |
| 20260504211804 | 49 | 341 | 20.0 | 26.0 | 0.00 | 4.14 | 0.17 | 80 | 1009.7 |
| 20260504211557 | 49 | 350 | 19.0 | 27.0 | 0.00 | 0.18 | 0.17 | 80 | 1009.7 |
| 20260504211304 | 49 | 338 | 20.0 | 25.0 | 0.00 | 4.14 | 0.17 | 81 | 1009.7 |
| 20260504210804 | 50 | 337 | 18.0 | 24.0 | 0.00 | 4.14 | 0.17 | 80 | 1009.7 |
| 20260504210304 | 50 | 339 | 16.0 | 25.0 | 0.00 | 4.14 | 0.17 | 80 | 1009.6 |
| 20260504210059 | 49 | 13 | 18.0 | 25.0 | 0.00 | 0.18 | 0.17 | 80 | 1009.5 |
| 20260504204804 | 50 | 335 | 12.0 | 21.0 | 0.00 | 4.14 | 0.17 | 80 | 1009.6 |
| 20260504204559 | 49 | 331 | 15.0 | 21.0 | 0.00 | 0.18 | 0.17 | 79 | 1009.5 |
| 20260504204304 | 50 | 337 | 14.0 | 21.0 | 0.00 | 4.14 | 0.17 | 80 | 1009.6 |
| 20260504203804 | 50 | 345 | 16.0 | 21.0 | 0.00 | 4.14 | 0.17 | 79 | 1009.7 |
| 20260504203304 | 50 | 334 | 12.0 | 22.0 | 0.00 | 4.14 | 0.17 | 79 | 1009.7 |
| 20260504203057 | 49 | 331 | 12.0 | 22.0 | 0.00 | 0.18 | 0.17 | 79 | 1009.7 |
| 20260504201804 | 50 | 328 | 16.0 | 21.0 | 0.00 | 4.15 | 0.17 | 78 | 1009.7 |
| 20260504201556 | 50 | 337 | 12.0 | 20.0 | 0.00 | 0.18 | 0.17 | 78 | 1009.7 |
| 20260504201304 | 50 | 346 | 13.0 | 20.0 | 0.00 | 4.15 | 0.17 | 78 | 1009.8 |
| 20260504200101 | 50 | 332 | 12.0 | 21.0 | 0.00 | 0.18 | 0.17 | 77 | 1009.8 |
| 20260504194804 | 50 | 340 | 15.0 | 20.0 | 0.00 | 4.16 | 0.17 | 77 | 1009.8 |
| 20260504194556 | 50 | 324 | 12.0 | 19.0 | 0.00 | 0.18 | 0.17 | 77 | 1009.8 |
| 20260504194304 | 50 | 345 | 14.0 | 20.0 | 0.00 | 4.17 | 0.17 | 77 | 1009.7 |
| 20260504193804 | 50 | 326 | 15.0 | 18.0 | 0.00 | 4.01 | 0.17 | 77 | 1009.8 |
| 20260504193304 | 50 | 333 | 14.0 | 20.0 | 0.00 | 4.01 | 0.17 | 77 | 1009.8 |
| 20260504193059 | 50 | 332 | 12.0 | 19.0 | 0.00 | 0.18 | 0.17 | 76 | 1009.7 |
| 20260504191805 | 50 | 339 | 14.0 | 20.0 | 0.00 | 4.02 | 0.17 | 77 | 1009.7 |
| 20260504191600 | 50 | 334 | 16.0 | 20.0 | 0.00 | 0.18 | 0.17 | 76 | 1009.7 |
| 20260504191304 | 51 | 327 | 14.0 | 20.0 | 0.00 | 4.02 | 0.17 | 76 | 1009.7 |
| 20260504190804 | 51 | 331 | 16.0 | 20.0 | 0.00 | 4.02 | 0.17 | 76 | 1009.6 |
| 20260504190304 | 51 | 325 | 16.0 | 20.0 | 0.00 | 3.84 | 0.17 | 76 | 1009.6 |
| 20260504190110 | 50 | 334 | 15.0 | 20.0 | 0.00 | 0.18 | 0.17 | 76 | 1009.5 |
| 20260504184804 | 51 | 329 | 14.0 | 21.0 | 0.00 | 3.85 | 0.17 | 76 | 1009.5 |
| 20260504184614 | 51 | 323 | 16.0 | 22.0 | 0.00 | 0.18 | 0.17 | 76 | 1009.5 |
| 20260504184304 | 51 | 326 | 19.0 | 22.0 | 0.00 | 3.86 | 0.17 | 76 | 1009.4 |
| 20260504183804 | 51 | 331 | 16.0 | 20.0 | 0.00 | 3.87 | 0.17 | 76 | 1009.4 |
| 20260504183107 | 51 | 299 | 11.0 | 20.0 | 0.00 | 0.18 | 0.17 | 75 | 1009.4 |
| 20260504181804 | 52 | 340 | 9.0 | 17.0 | 0.00 | 3.69 | 0.17 | 76 | 1009.4 |
| 20260504181558 | 51 | 320 | 13.0 | 20.0 | 0.00 | 0.18 | 0.17 | 76 | 1009.4 |
| 20260504181304 | 52 | 349 | 14.0 | 20.0 | 0.00 | 3.70 | 0.17 | 76 | 1009.3 |
| 20260504180804 | 52 | 345 | 16.0 | 20.0 | 0.00 | 3.70 | 0.17 | 76 | 1009.4 |
| 20260504180304 | 52 | 342 | 10.0 | 18.0 | 0.00 | 3.70 | 0.17 | 76 | 1009.3 |
| 20260504180056 | 52 | 355 | 13.0 | 18.0 | 0.00 | 0.18 | 0.17 | 75 | 1009.3 |
| 20260504174804 | 53 | 335 | 10.0 | 17.0 | 0.00 | 3.71 | 0.17 | 76 | 1009.1 |
| 20260504174606 | 52 | 345 | 9.0 | 17.0 | 0.00 | 0.18 | 0.17 | 75 | 1009.1 |
| 20260504174304 | 53 | 332 | 13.0 | 16.0 | 0.00 | 3.71 | 0.17 | 76 | 1009.2 |